[[{"header":{"parameterUnit":"m.s-1","parameterCategory":1,"la1":30.2991,"la2":30.254,"lo1":-89.0895,"lo2":-89.0444,"dy":0.0017,"dx":0.0017,"nx":28,"ny":28,"refTime":"2024-05-21T03:00:00:Z","depth":0,"parameterNumber":2,"parameterNumberName":"U-component_of_WINDS"},"data":[0,0,0,0,0,0,0,0,0,0,0,0,0,0,0,0,0,0,0,0,0,0,0,0,0,0,0,0,0,0,0,0,0,0,0,0,0,0,0,0,0,0,0,0,0,0,0,0,0,0,0,0,0,0,0,0,0,0,-2.7006,-2.7007,0,-2.7042,-2.7042,-2.7043,-2.7018,-2.7016,-2.7015,-2.7014,-2.7051,-2.7053,-2.7055,0,0,0,0,0,0,0,0,0,0,0,0,0,-2.6919,-2.692,-2.7006,-2.7007,-2.7007,-2.7042,-2.7042,-2.7043,-2.7018,-2.7016,-2.7015,-2.7014,-2.7051,-2.7053,-2.7055,0,0,0,0,0,0,0,0,0,0,0,0,0,-2.6956,-2.6921,-2.7006,-2.6999,-2.6999,-2.7042,-2.7042,-2.7043,-2.7018,-2.7016,-2.7015,-2.7013,-2.705,-2.7053,-2.7056,-2.7108,0,0,-2.7065,-2.7066,0,0,0,0,0,0,0,0,-2.6954,-2.6959,-2.6999,-2.6999,-2.6999,-2.7024,-2.7025,-2.7065,-2.7018,-2.7011,-2.7014,-2.7012,-2.7043,-2.7047,-2.7057,-2.711,-2.7112,-2.7065,-2.7067,-2.7069,-2.7069,0,0,0,0,0,0,0,-2.6951,-2.6957,-2.702,-2.7,-2.7,-2.6994,-2.6998,-2.7032,-2.7036,-2.7011,-2.7009,-2.7014,-2.7043,-2.7054,-2.7058,-2.7112,-2.7065,-2.7068,-2.707,-2.7071,-2.7211,-2.7213,0,0,0,0,0,0,-2.6949,-2.6955,-2.7019,-2.7021,-2.6972,-2.6997,-2.7001,-2.7017,-2.7036,-2.7037,-2.7015,-2.7013,-2.705,-2.7054,-2.7059,-2.7122,-2.7069,-2.7071,-2.7073,-2.7209,-2.7212,-2.7214,0,0,0,0,0,0,-2.6947,-2.6955,-2.7018,-2.6988,-2.6996,-2.7001,-2.7019,-2.7019,-2.703,-2.7039,-2.7039,-2.7026,-2.7049,-2.7055,-2.7097,-2.7123,-2.7073,-2.7076,-2.7207,-2.721,-2.7213,-2.7248,0,0,0,0,0,0,-2.6945,-2.6954,-2.6974,-2.6989,-2.6997,-2.7054,-2.7021,-2.7021,-2.7036,-2.7032,-2.7049,-2.705,-2.7048,-2.7092,-2.71,-2.7126,-2.7078,-2.7205,-2.7208,-2.7212,-2.7245,-2.7252,-2.7258,0,0,0,0,0,-2.6942,-2.6982,-2.6975,-2.6983,-2.7022,-2.7055,-2.706,-2.7057,-2.7038,-2.7058,-2.7063,-2.705,-2.7119,-2.7097,-2.7105,-2.7133,-2.7203,-2.7207,-2.7212,-2.7241,-2.725,-2.7258,0,0,0,0,0,0,-2.697,-2.6984,-2.6976,-2.7022,-2.7038,-2.7051,-2.7076,-2.7066,-2.7088,-2.7084,-2.7079,-2.7083,-2.7127,-2.7134,-2.7108,-2.7185,-2.7158,-2.7164,-2.7178,-2.7187,-2.7193,-2.719,-2.708,0,0,0,0,0,-2.6982,-2.7008,-2.7019,-2.7059,-2.7067,-2.7071,-2.7085,-2.7081,-2.7097,-2.7104,-2.7112,-2.7129,-2.7155,-2.7171,-2.7195,-2.7246,-2.725,-2.727,-2.7277,-2.7282,-2.7287,-2.7315,-2.7324,-2.7228,-2.7228,-2.7228,0,0,-2.7007,-2.7017,-2.7034,-2.7065,-2.7077,-2.7104,-2.7076,-2.7106,-2.7127,-2.7108,-2.7148,-2.7155,-2.7174,-2.722,-2.7241,-2.7228,-2.7315,-2.7288,-2.7292,-2.7294,-2.732,-2.7329,-2.7338,-2.7231,-2.723,-2.723,0,0,-2.7065,-2.7076,-2.711,-2.7123,-2.7141,-2.7143,-2.7152,-2.7167,-2.7171,-2.7211,-2.7198,-2.7223,-2.7267,-2.728,-2.7293,-2.7359,-2.7347,-2.7367,-2.7402,-2.7429,-2.7437,-2.7443,-2.7467,-2.7475,-2.7373,-2.7373,-2.7373,0,-2.7093,-2.7133,-2.7129,-2.7161,-2.7175,-2.7161,-2.7196,-2.7208,-2.7234,-2.7244,-2.7229,-2.7285,-2.7296,-2.7346,-2.7362,-2.7373,-2.7383,-2.7364,-2.7436,-2.7443,-2.7449,-2.7471,-2.748,-2.7375,-2.7375,-2.7374,-2.7374,0,-2.7167,-2.7195,-2.7221,-2.7246,-2.7263,-2.7297,-2.7299,-2.7317,-2.7313,-2.7317,-2.7358,-2.7372,-2.7398,-2.741,-2.7406,-2.746,-2.7451,-2.7436,-2.7409,-2.746,-2.7481,-2.7489,-2.7378,-2.7377,-2.7377,-2.7376,0,0,-2.7242,-2.7265,-2.7275,-2.7286,-2.7306,-2.7328,-2.7362,-2.7388,-2.7403,-2.7422,-2.745,-2.7489,-2.7476,-2.749,-2.7488,-2.7512,-2.7564,-2.7494,-2.7495,-2.7506,-2.7624,-2.7634,-2.7644,-2.7557,-2.7559,-2.756,-2.7622,0,-2.73,-2.7357,-2.7356,-2.741,-2.7436,-2.7424,-2.7453,-2.7469,-2.7474,-2.7498,-2.7505,-2.7532,-2.7513,-2.7521,-2.7545,-2.7552,-2.7587,-2.7548,-2.7583,-2.7584,-2.7577,-2.7655,-2.7665,-2.7724,-2.763,-2.7632,-2.7633,0,-2.7376,-2.7397,-2.7453,-2.747,-2.7481,-2.7507,-2.7531,-2.7555,-2.7573,-2.7575,-2.7593,-2.7587,-2.7622,-2.7595,-2.7643,-2.7616,-2.7631,-2.7637,-2.7639,-2.7641,-2.761,-2.7658,-2.7742,-2.775,-2.7646,-2.7645,-2.7644,0,-2.7424,-2.7467,-2.7506,-2.7516,-2.7537,-2.7556,-2.7565,-2.7582,-2.7598,-2.762,-2.7631,-2.7657,-2.7671,-2.7692,-2.7694,-2.7674,-2.7742,-2.7715,-2.7745,-2.7745,-2.7759,-2.7757,-2.7845,-2.777,-2.777,-2.777,-2.777,0,-2.7489,-2.7524,-2.7528,-2.7552,-2.7591,-2.759,-2.7629,-2.7637,-2.7652,-2.7678,-2.767,-2.7694,-2.7696,-2.7722,-2.7724,-2.7763,-2.777,-2.7773,-2.7773,-2.7773,-2.7773,-2.7781,-2.7777,-2.7772,-2.7772,-2.7771,-2.7771,0,-2.7549,-2.7553,-2.7595,-2.7612,-2.7617,-2.7645,-2.7659,-2.7683,-2.7688,-2.7721,-2.7729,-2.7738,-2.7767,-2.7772,-2.7807,-2.7808,-2.7856,-2.7852,-2.7849,-2.7848,-2.7878,-2.7875,-2.7973,-2.7986,-2.7904,-2.7905,-2.7905,0,-2.7589,-2.7615,-2.7635,-2.7652,-2.7662,-2.7689,-2.7706,-2.7707,-2.7725,-2.7749,-2.7769,-2.7799,-2.7822,-2.7871,-2.788,-2.7908,-2.7904,-2.7937,-2.7908,-2.7907,-2.7903,-2.7901,-2.7904,-2.7942,-2.7942,-2.7943,-2.7944,0,-2.766,-2.7661,-2.7685,-2.7711,-2.7731,-2.7751,-2.777,-2.7784,-2.7788,-2.7809,-2.7839,-2.7857,-2.7893,-2.7923,-2.795,-2.7961,-2.7953,-2.7953,-2.7961,-2.7961,-2.7958,-2.796,-2.7863,-2.795,-2.795,-2.7949,-2.7949,-2.7949,-2.7711,-2.7734,-2.7752,-2.7779,-2.7794,-2.7812,-2.7835,-2.7843,-2.7869,-2.7898,-2.7897,-2.7931,-2.795,-2.7986,-2.7999,-2.8026,-2.8015,-2.8027,-2.803,-2.8033,-2.8035,-2.7955,-2.8031,-2.8031,-2.8031,-2.8031,-2.803,0,-2.7781,-2.7792,-2.7818,-2.7844,-2.7866,-2.7858,-2.7879,-2.7898,-2.7927,-2.7946,-2.7969,-2.8004,-2.8033,-2.8046,-2.8075,-2.8094,-2.8091,-2.8101,-2.8099,-2.8102,-2.8043,-2.8033,-2.8103,-2.8103,-2.8103,-2.8103,-2.8103,-2.8103,-2.782,-2.7859,-2.7862,-2.7908,-2.792,-2.7952,-2.7965,-2.7982,-2.7997,-2.8036,-2.806,-2.8069,-2.8085,-2.8115,-2.8142,-2.8145,-2.8155,-2.8167,-2.8169,-2.8113,-2.8106,-2.8099,-2.8089,-2.8169,-2.817,-2.8225,-2.8225,-2.8225]},{"header":{"parameterUnit":"m.s-1","parameterCategory":1,"la1":30.2991,"la2":30.254,"lo1":-89.0895,"lo2":-89.0444,"dy":0.0017,"dx":0.0017,"nx":28,"ny":28,"refTime":"2024-05-21T03:00:00:Z","depth":0,"parameterNumber":3,"parameterNumberName":"V-component_of_WINDS"},"data":[0,0,0,0,0,0,0,0,0,0,0,0,0,0,0,0,0,0,0,0,0,0,0,0,0,0,0,0,0,0,0,0,0,0,0,0,0,0,0,0,0,0,0,0,0,0,0,0,0,0,0,0,0,0,0,0,0,0,3.5884,3.5885,0,3.5973,3.5974,3.5975,3.5987,3.5986,3.5985,3.5984,3.6071,3.6074,3.6077,0,0,0,0,0,0,0,0,0,0,0,0,0,3.5723,3.5726,3.5884,3.5885,3.5886,3.5973,3.5974,3.5975,3.5987,3.5986,3.5985,3.5984,3.607,3.6074,3.6077,0,0,0,0,0,0,0,0,0,0,0,0,0,3.58,3.5727,3.5884,3.5903,3.5905,3.5972,3.5974,3.5975,3.5987,3.5986,3.5985,3.5984,3.6069,3.6073,3.6078,3.6131,0,0,3.6092,3.6094,0,0,0,0,0,0,0,0,3.5796,3.5806,3.5899,3.5902,3.5905,3.5968,3.5949,3.6027,3.5987,3.5956,3.5984,3.5983,3.6037,3.6045,3.6064,3.6135,3.6139,3.6092,3.6095,3.6097,3.6099,0,0,0,0,0,0,0,3.579,3.5802,3.5919,3.59,3.5904,3.5906,3.5916,3.5964,3.6002,3.5959,3.596,3.597,3.6039,3.6059,3.6066,3.614,3.6092,3.6096,3.6099,3.6101,3.6261,3.6263,0,0,0,0,0,0,3.5782,3.5798,3.5916,3.5922,3.5846,3.591,3.5921,3.5948,3.6002,3.6009,3.5971,3.5971,3.6052,3.606,3.6069,3.6136,3.6097,3.6102,3.6104,3.626,3.6261,3.6263,0,0,0,0,0,0,3.5779,3.5793,3.5913,3.586,3.5876,3.5914,3.5945,3.5951,3.5972,3.6012,3.6018,3.5985,3.6051,3.6062,3.6116,3.6139,3.6104,3.6108,3.6258,3.626,3.6262,3.6269,0,0,0,0,0,0,3.5774,3.5791,3.5812,3.5861,3.5878,3.5959,3.5947,3.5954,3.598,3.598,3.6026,3.6033,3.6051,3.6109,3.6121,3.6145,3.6111,3.6256,3.6259,3.6262,3.6267,3.6271,3.6275,0,0,0,0,0,3.5768,3.5809,3.5813,3.5827,3.5906,3.596,3.597,3.5992,3.5982,3.6003,3.6029,3.6031,3.6135,3.6115,3.6128,3.6153,3.6255,3.6258,3.6261,3.6265,3.6271,3.6275,0,0,0,0,0,0,3.5761,3.5816,3.5821,3.5879,3.5915,3.5962,3.599,3.5996,3.6035,3.6033,3.6057,3.6067,3.612,3.6142,3.6119,3.6208,3.6194,3.62,3.6192,3.6197,3.6201,3.6195,3.6115,0,0,0,0,0,3.5766,3.5807,3.5853,3.59,3.5918,3.5951,3.5975,3.5989,3.6027,3.6042,3.6071,3.6107,3.6148,3.6174,3.6213,3.627,3.6281,3.6294,3.6298,3.6302,3.6307,3.634,3.6347,3.6274,3.6274,3.6274,0,0,3.5777,3.5813,3.5836,3.5899,3.5929,3.597,3.5963,3.6007,3.6038,3.6048,3.6101,3.6124,3.6165,3.6222,3.6248,3.6242,3.6329,3.6306,3.6308,3.6311,3.6344,3.6351,3.6357,3.6276,3.6276,3.6276,0,0,3.5819,3.585,3.5893,3.5923,3.5969,3.5991,3.6001,3.6048,3.6065,3.6119,3.6128,3.6164,3.6233,3.6263,3.6287,3.6342,3.6346,3.6354,3.6375,3.6407,3.6413,3.6418,3.6438,3.6445,3.6359,3.6359,3.6359,0,3.5827,3.589,3.5914,3.5958,3.5986,3.5999,3.6043,3.6071,3.6126,3.6145,3.6137,3.6226,3.6254,3.6318,3.6332,3.6351,3.6363,3.6349,3.641,3.6416,3.6421,3.6441,3.6448,3.636,3.636,3.6359,3.6359,0,3.5898,3.5942,3.5972,3.6027,3.6058,3.6102,3.6132,3.616,3.6171,3.6194,3.6249,3.6284,3.6332,3.6348,3.6358,3.6414,3.6409,3.6405,3.6391,3.6428,3.6447,3.6455,3.6361,3.636,3.636,3.636,0,0,3.5937,3.6006,3.6017,3.6043,3.6095,3.6129,3.6174,3.6222,3.6246,3.6284,3.6322,3.6381,3.6379,3.6407,3.6421,3.6449,3.6492,3.6442,3.6444,3.6451,3.6556,3.6559,3.6567,3.6495,3.6496,3.6498,3.6553,0,3.5985,3.6066,3.609,3.6158,3.6199,3.6213,3.6252,3.6288,3.631,3.6348,3.6373,3.6415,3.6408,3.6425,3.6454,3.648,3.6513,3.6477,3.653,3.6532,3.652,3.6577,3.658,3.663,3.656,3.6562,3.6563,0,3.6052,3.6094,3.6167,3.6215,3.6233,3.6268,3.6315,3.6351,3.6392,3.6407,3.6439,3.6451,3.6498,3.6481,3.6546,3.6521,3.6544,3.656,3.6563,3.6569,3.655,3.6585,3.6647,3.6655,3.6574,3.6573,3.6573,0,3.6074,3.6148,3.6202,3.6224,3.6281,3.6306,3.633,3.6371,3.6399,3.6439,3.6458,3.6503,3.6527,3.6561,3.6585,3.6571,3.6649,3.6634,3.6662,3.6661,3.6678,3.6676,3.6744,3.6692,3.6692,3.6691,3.6691,0,3.6126,3.617,3.6213,3.6246,3.6296,3.6323,3.6371,3.6396,3.6432,3.647,3.6484,3.6519,3.6548,3.6587,3.6606,3.6658,3.6668,3.6681,3.6686,3.668,3.6679,3.6696,3.6693,3.6693,3.6693,3.6693,3.6692,0,3.6159,3.6189,3.6249,3.63,3.6313,3.6348,3.6391,3.6423,3.6447,3.6495,3.6508,3.6545,3.6591,3.6619,3.6677,3.669,3.6747,3.675,3.6734,3.6736,3.6763,3.6761,3.6845,3.6858,3.6796,3.6797,3.6797,0,3.619,3.6225,3.628,3.6307,3.6333,3.6376,3.6406,3.6433,3.6463,3.6514,3.654,3.6588,3.6628,3.6702,3.6734,3.6779,3.6783,3.6809,3.6789,3.6784,3.6784,3.6782,3.6786,3.6813,3.6813,3.6814,3.6814,0,3.6243,3.6257,3.6299,3.6348,3.6383,3.6422,3.6461,3.6482,3.6516,3.6548,3.6598,3.6629,3.669,3.6737,3.6785,3.681,3.6818,3.682,3.6829,3.6824,3.6814,3.6821,3.6744,3.6818,3.6818,3.6817,3.6817,3.6817,3.6277,3.6309,3.6353,3.6401,3.6433,3.6469,3.6503,3.6532,3.6574,3.6627,3.664,3.6692,3.6733,3.6799,3.6825,3.6865,3.6861,3.6873,3.6877,3.688,3.6881,3.6808,3.6874,3.6874,3.6874,3.6874,3.6874,0,3.6331,3.6361,3.6404,3.6459,3.6496,3.6502,3.6546,3.6576,3.6622,3.6661,3.67,3.6757,3.6804,3.684,3.6888,3.6913,3.6918,3.6925,3.6923,3.6929,3.6882,3.687,3.692,3.692,3.692,3.692,3.692,3.692,3.6364,3.6419,3.6439,3.651,3.6539,3.6591,3.6616,3.6649,3.6681,3.6744,3.6784,3.6807,3.6845,3.6896,3.6939,3.6949,3.6966,3.6972,3.6982,3.6937,3.6932,3.6927,3.6916,3.6976,3.6976,3.7026,3.7027,3.7027]}]]